Weather in Urynok

Russia / Oryol Oblast     52°04′23″N   37°20′29″E
temp.,
°C
wind,
m/s
gust,
m/s
humid.,
%
clouds,
%
prec.,
mm/h
press.,
hPa
HPBL,
m
24 january, mon
mon2400:00−13nne4119893 0.0 1030167
03:00−12nne5149797 0.1 1030274
06:00−10nne6159384 0.0 1030373
09:00−8nne71594100 0.3 1031464
12:00−8ne6129399 0.3 1031405
15:00−7ne51194100 0.3 1030403
18:00−9nne5109580 0.0 1030261
21:00−12nne4109798 0.0 1030170
25 january, tue
tue2500:00−13ne399633 0.0 1029150
03:00−17nne349967 0.0 102951
06:00−19ne2210090 0.0 102822
09:00−21ne11100100 0.1 102711
12:00−14nne119599 0.0 102693
15:00−11w1192100 0.1 1023128
18:00−11wsw1196100 0.0 102228
21:00−11w2395100 0.0 1021110
26 january, wed
wed2600:00−13wsw2396100 0.0 102053
03:00−17wsw2398100 0.0 102043
06:00−17wsw2397100 0.0 101954
09:00−14wsw2496100 0.0 101985
12:00−10sw349199 0.0 1019186
15:00−8wsw3592100 0.1 1018273
18:00−9sw249778 0.1 101967
21:00−10w229766 0.1 102042
27 january, thu
thu2700:00−13w229879 0.1 102022
03:00−16w2210082 0.1 102112
06:00−17wsw2210096 0.1 102018
09:00−17ssw229981 0.1 102018
12:00−11sw249689 0.0 1019125
15:00−9ssw3695100 0.1 1018203
18:00−12s369797 0.0 101888
21:00−14s399757 0.0 1017114
28 january, fri
fri2800:00−15s4119878 0.0 1016159
03:00−12s5139489 0.0 1014273
06:00−10s6139499 0.0 1011310
09:00−9s61494100 0.1 1010335
12:00−6s71495100 0.7 1007511
15:00−4s61395100 1.9 1005526
18:00−2ssw51296100 0.2 1004372
21:00−1sw5109388 0.4 1004469